{"data":{"norad_id":56780,"epoch":"2026-05-25T02:45:54.402336Z","epoch_age_seconds":61593,"freshness":"FRESH","line1":"1 56780U 23078P   26145.11521299  .00000453  00000+0  45737-4 0  9995","line2":"2 56780  69.9981 151.5572 0004269 268.0370  92.0301 14.98332708164138","mean_motion":14.98332708,"eccentricity":0.0004269,"inclination_deg":69.9981,"raan_deg":151.5572,"arg_perigee_deg":268.037,"mean_anomaly_deg":92.0301,"bstar":4.5737e-5,"rev_number":16413,"period_min":96.106825427454,"perigee_km":569.08048292024,"apogee_km":575.01455046059,"semimajor_km":6950.1845166904,"source":"CELESTRAK","updated_at":"2026-05-25T13:38:18.152444Z"}}